LUME 1 (43908 NORAD) Tracking and Keplerian Element Data

This shows tracking and keplerian element data for the satellite.

Feedback or suggestion? Click here.




ElementValue
Catalog43908
NameLUME 1
Epoch Orbit392
Epoch Day21.82090766
Epoch Year2019
RAAN291.0388
Inclination97.2997
Eccentricity0.0022608
Argument of Perigee149.2744
Mean Anonmoly210.9823
Mean Motion15.24000302
Decay Rate7.22E-06
L11 43908U 18111AJ 19021.82090766 .00000722 00000-0 32524-4 0 9998
L22 43908 97.2997 291.0388 0022608 149.2744 210.9823 15.24000302 3925

Live tracking and technical data element details for LUME 1 (NORAD 43908). LUME 1 can be tracked NOW for your location showing map with azimuth and elevation plus other details from your city location.

Track the satellite on the map from your city or location and see movement details for azimuth, elevation, latitude, longitude, range, height, and movement on the map or in text.







IsCatalogInMostPopularTable: catalog: 43908, numindb: 24
Update: records affected: 1



GetName: 43908 LUME 1

Hit Count: updated at: Wed, 23 Jan 2019 02:40:06 GMT